Overview Statistics Trail Chart Weather Telemetry Raw packets
 

This is the latest recevied weather packets stored in our database for station/object K3RUP-1. If no packets are shown the sender has not sent any weather packets the latest 10 day(s).

<< 79 80 81 82 83 84 85 >>
Time Temp. Humidity Pressure Rain* Wind** Luminosity Snow
1788118741 30.56° C 65% 1018 hPa 0 mm - 88 W/m² -
1788118441 30.56° C 65% 1018.3 hPa 0 mm - 79 W/m² -
1788118136 31.11° C 64% 1018.3 hPa 0 mm - 83 W/m² -
1788117836 31.11° C 64% 1018.5 hPa 0 mm - 115 W/m² -
1788117532 31.11° C 65% 1018.5 hPa 0 mm - 563 W/m² -
1788117231 30.56° C 66% 1018.3 hPa 0 mm - 566 W/m² -
1788116928 30.56° C 65% 1018.6 hPa 0 mm - 565 W/m² -
1788116622 30.56° C 66% 1018.6 hPa 0 mm - 188 W/m² -
1788116320 31.67° C 62% 1018.7 hPa 0 mm - 335 W/m² -
1788116016 32.22° C 62% 1018.8 hPa 0 mm - 315 W/m² -
1788115711 31.67° C 64% 1018.9 hPa 0 mm - 615 W/m² -
1788115411 31.11° C 64% 1019 hPa 0 mm - 596 W/m² -
1788115111 31.11° C 64% 1018.9 hPa 0 mm - 585 W/m² -
1788114805 30.56° C 66% 1019.2 hPa 0 mm - 457 W/m² -
1788114501 30.56° C 66% 1019.1 hPa 0 mm - 659 W/m² -
1788114197 31.11° C 68% 1019.5 hPa 0 mm - 172 W/m² -
1788113893 31.11° C 65% 1019.3 hPa 0 mm - 675 W/m² -
1788113589 31.11° C 65% 1019.3 hPa 0 mm - 640 W/m² -
1788113287 31.11° C 64% 1019.6 hPa 0 mm - 638 W/m² -
1788112981 30.56° C 67% 1019.7 hPa 0 mm - 629 W/m² -
1788112676 30.56° C 66% 1019.4 hPa 0 mm - 610 W/m² -
1788112371 30.56° C 67% 1019.6 hPa 0 mm - 606 W/m² -
1788112071 30.56° C 67% 1019.7 hPa 0 mm - 665 W/m² -
1788111767 30.56° C 66% 1019.7 hPa 0 mm - 189 W/m² -
1788111466 30.56° C 66% 1019.8 hPa 0 mm - 678 W/m² -

* Rain latest hour (hover to see other rain measurements)
** Current wind speed in m/s (hover to see current wind gust speed)